Location: ????????
(55.0559°N, 39.1270°E)
Time: 00:28:49
(UTC+00:00)

Cosmos 1850 Rocket - Pass Details

Date: 15 November 2025
Orbit: 751 x 780 km, 74.0° (Epoch: 12 December)

Event Time Altitude Azimuth Distance (km) Brightness Sun altitude
Exits shadow 03:14:12 12° 325° (NW) 2,173 5.9 -14.2°
Maximum altitude 03:18:56 54° 250° (WSW) 911 4.1 -13.6°
Drops below altitude 10° 03:23:56 10° 174° (S) 2,273 6.7 -12.9°
Sets 03:26:19 0° 170° (S) 3,196 7.6 -12.5°
